SCP
0 0 0 0 0 0 0 0 0 0 0 0 0 0 0 0 0 0 0 0 0 0
0 0 0 0 0 0 0 0 0 0 0 0 0 0 0 0 0 0 0 0 0 0
0 0 0 0 0 0 0 0 0 0 0 0 0 0 0 0 0 0 0 0 0 0
0 0 0 0 0 0 0 0 0 0 0 0 0 0 0 0 0 0 0 0 0 0
0 0 0 0 0 0 0 0 0 0 0 0 0 0 0 0 0 0 0 0 0 0
0 0 0 0 0 0 0 0 0 0 0 0 0 0 0 0 0 0 0 0 0 0
0 0 0 0 0 0 0 0 0 0 0 0 0 0 0 0 0 0 0 0 0 0
0 0 0 0 0 0 0 0 0 0 0 0 0 0 0 0 0 0 0 0 0 0
0 0 0 0 0 0 0 0 0 0 0 0 0 0 0 0 0 0 0 0 0 0
0 0 0 0 0 0 0 0 0 0 0 0 0 0 0 0 0 0 0 0 0 0
0 0 0 0 0 0 0 0 0 0 0 0 0 0 0 0 0 0 0 0 0 0
0 0 0 0 0 0 0 0 0 0 0 0 0 0 0 0 0 0 0 0 0 0
0 0 0 0 0 0 0 0 0 0 0 0 0 0 0 0 0 0 0 0 0 0
0 0 0 0 0 0 0 0 0 0 0 0 0 0 0 0 0 0 0 0 0 0
Wind_Speed_500mb
30 47 58 67 32 76 77 86 81 77 84 82 80 77 76 77 75 76 79 81 83 86
38 48 47 48 49 46 44 57 80 73 87 84 83 81 83 83 78 75 82 88 87 86
25 27 36 34 35 43 54 56 85 74 69 74 88 95 86 79 79 74 84 86 86 75
2 6 7 13 22 29 40 49 57 69 75 75 75 82 82 60 51 58 61 65 53 37
7 5 2 4 10 10 11 21 28 25 20 18 28 25 27 31 42 43 46 38 28 22
39 34 33 27 17 17 15 11 13 13 14 21 11 9 13 9 15 22 32 31 26 24
42 41 41 38 34 33 37 35 34 37 36 38 38 31 33 28 30 29 26 23 16 12
39 35 33 27 24 24 25 26 26 28 28 27 29 29 29 28 22 17 14 12 8 10
35 32 32 31 30 29 29 33 31 29 28 23 20 16 11 9 10 13 13 14 19 18
36 33 35 33 29 24 22 19 17 18 19 20 22 22 21 21 18 18 20 18 16 15
37 36 34 31 34 32 31 29 30 26 24 21 26 24 22 19 17 17 17 16 16 13
37 33 31 30 33 27 25 25 23 22 23 19 22 20 17 17 14 13 12 11 10 8
33 31 31 31 28 27 24 23 21 17 18 18 17 17 15 13 11 8 7 6 3 3
30 29 29 27 25 22 20 19 17 16 16 15 14 12 9 9 8 6 5 5 6 6
Wind_Direction_500mb
216 229 238 246 259 224 240 236 240 246 239 240 243 242 240 240 241 240 242 244 246 245
216 217 232 243 252 250 247 252 245 250 249 242 243 242 242 240 242 244 247 249 254 257
226 244 251 252 256 257 260 264 241 241 245 255 248 244 241 237 243 249 256 263 267 254
233 253 254 263 275 274 258 252 228 238 238 238 235 237 235 235 245 259 252 251 238 235
96 98 109 147 204 201 209 200 184 194 220 238 229 250 242 255 245 240 216 207 203 175
99 97 93 93 112 126 124 128 128 136 163 162 145 167 168 182 180 166 138 123 121 115
96 95 94 94 91 94 99 97 95 95 102 103 100 102 113 111 120 119 104 103 93 104
84 85 86 90 93 92 93 92 91 98 102 100 101 101 109 105 96 87 91 83 109 132
85 84 84 85 82 80 81 88 89 83 80 78 82 97 108 105 113 125 133 146 131 117
83 88 89 89 85 84 86 90 96 106 114 118 109 104 104 101 109 107 109 114 121 133
84 84 86 91 95 93 97 101 102 102 95 99 103 100 97 93 96 104 111 118 123 126
79 80 81 82 79 79 81 88 93 95 99 99 100 98 98 99 97 98 106 108 108 112
77 80 78 77 82 81 81 80 82 87 88 89 91 88 83 79 81 81 82 86 77 44
71 71 71 70 71 69 68 70 77 75 78 77 78 76 66 63 55 38 25 10 347 331
Wind_Speed_850mb
30 47 58 67 32 76 77 86 81 77 84 82 80 77 76 77 75 76 79 81 83 86
38 48 47 48 49 46 44 57 80 73 87 84 83 81 83 83 78 75 82 88 87 86
25 27 36 34 35 43 54 56 85 74 69 74 88 95 86 79 79 74 84 86 86 75
2 6 7 13 22 29 40 49 57 69 75 75 75 82 82 60 51 58 61 65 53 37
7 5 2 4 10 10 11 21 28 25 20 18 28 25 27 31 42 43 46 38 28 22
39 34 33 27 17 17 15 11 13 13 14 21 11 9 13 9 15 22 32 31 26 24
42 41 41 38 34 33 37 35 34 37 36 38 38 31 33 28 30 29 26 23 16 12
39 35 33 27 24 24 25 26 26 28 28 27 29 29 29 28 22 17 14 12 8 10
35 32 32 31 30 29 29 33 31 29 28 23 20 16 11 9 10 13 13 14 19 18
36 33 35 33 29 24 22 19 17 18 19 20 22 22 21 21 18 18 20 18 16 15
37 36 34 31 34 32 31 29 30 26 24 21 26 24 22 19 17 17 17 16 16 13
37 33 31 30 33 27 25 25 23 22 23 19 22 20 17 17 14 13 12 11 10 8
33 31 31 31 28 27 24 23 21 17 18 18 17 17 15 13 11 8 7 6 3 3
30 29 29 27 25 22 20 19 17 16 16 15 14 12 9 9 8 6 5 5 6 6
Wind_Direction_850mb
216 229 238 246 259 224 240 236 240 246 239 240 243 242 240 240 241 240 242 244 246 245
216 217 232 243 252 250 247 252 245 250 249 242 243 242 242 240 242 244 247 249 254 257
226 244 251 252 256 257 260 264 241 241 245 255 248 244 241 237 243 249 256 263 267 254
233 253 254 263 275 274 258 252 228 238 238 238 235 237 235 235 245 259 252 251 238 235
96 98 109 147 204 201 209 200 184 194 220 238 229 250 242 255 245 240 216 207 203 175
99 97 93 93 112 126 124 128 128 136 163 162 145 167 168 182 180 166 138 123 121 115
96 95 94 94 91 94 99 97 95 95 102 103 100 102 113 111 120 119 104 103 93 104
84 85 86 90 93 92 93 92 91 98 102 100 101 101 109 105 96 87 91 83 109 132
85 84 84 85 82 80 81 88 89 83 80 78 82 97 108 105 113 125 133 146 131 117
83 88 89 89 85 84 86 90 96 106 114 118 109 104 104 101 109 107 109 114 121 133
84 84 86 91 95 93 97 101 102 102 95 99 103 100 97 93 96 104 111 118 123 126
79 80 81 82 79 79 81 88 93 95 99 99 100 98 98 99 97 98 106 108 108 112
77 80 78 77 82 81 81 80 82 87 88 89 91 88 83 79 81 81 82 86 77 44
71 71 71 70 71 69 68 70 77 75 78 77 78 76 66 63 55 38 25 10 347 331